Time,TemperatureF,DewpointF,PressureIn,WindDirection,WindDirectionDegrees,WindSpeedMPH,WindSpeedGustMPH,Humidity,HourlyPrecipIn,Conditions,Clouds,dailyrainin,SoftwareType,DateUTC
2013-02-11 00:05:00,29.6,23.3,29.83,West,260,10.0,16.0,77,0.00,,---,0.00,VWS V14.01,2013-02-11 06:05:00,
2013-02-11 00:11:00,29.9,23.9,29.84,West,265,6.0,16.0,78,0.00,,---,0.00,VWS V14.01,2013-02-11 06:11:00,
2013-02-11 00:17:00,30.1,23.8,29.84,West,278,7.0,17.0,77,0.00,,---,0.00,VWS V14.01,2013-02-11 06:17:00,
2013-02-11 00:23:00,30.3,24.0,29.85,West,262,9.0,20.0,77,0.00,,---,0.00,VWS V14.01,2013-02-11 06:23:00,
2013-02-11 00:29:00,30.3,23.7,29.85,West,277,13.0,21.0,76,0.00,,---,0.00,VWS V14.01,2013-02-11 06:29:00,
2013-02-11 00:35:00,30.3,23.7,29.85,West,270,18.0,20.0,76,0.00,,---,0.00,VWS V14.01,2013-02-11 06:35:00,
2013-02-11 00:41:00,30.2,23.6,29.86,WNW,292,10.0,24.0,76,0.00,,---,0.00,VWS V14.01,2013-02-11 06:41:00,
2013-02-11 00:47:00,30.2,23.6,29.86,West,263,9.0,27.0,76,0.00,,---,0.00,VWS V14.01,2013-02-11 06:47:00,
2013-02-11 00:53:00,30.2,23.6,29.86,West,261,8.0,34.0,76,0.00,,---,0.00,VWS V14.01,2013-02-11 06:53:00,
2013-02-11 00:59:00,30.2,23.9,29.87,West,262,15.0,34.0,77,0.00,,---,0.00,VWS V14.01,2013-02-11 06:59:00,
2013-02-11 01:05:00,30.1,23.8,29.87,NNW,331,13.0,20.0,77,0.00,,---,0.00,VWS V14.01,2013-02-11 07:05:00,
2013-02-11 01:11:00,29.9,23.9,29.87,WNW,300,12.0,20.0,78,0.00,,---,0.00,VWS V14.01,2013-02-11 07:11:00,
2013-02-11 01:17:00,29.9,23.9,29.87,WNW,300,7.0,20.0,78,0.00,,---,0.00,VWS V14.01,2013-02-11 07:17:00,
2013-02-11 01:23:00,29.8,24.1,29.88,West,279,9.0,20.0,79,0.00,,---,0.00,VWS V14.01,2013-02-11 07:23:00,
2013-02-11 01:30:00,29.7,24.3,29.88,West,281,6.0,20.0,80,0.00,,---,0.00,VWS V14.01,2013-02-11 07:30:00,
2013-02-11 01:36:00,29.7,24.3,29.88,West,275,4.0,18.0,80,0.00,,---,0.00,VWS V14.01,2013-02-11 07:36:00,
2013-02-11 01:42:00,29.6,24.5,29.89,West,266,4.0,18.0,81,0.00,,---,0.00,VWS V14.01,2013-02-11 07:42:00,
2013-02-11 01:48:00,29.5,24.4,29.89,West,259,5.0,18.0,81,0.00,,---,0.00,VWS V14.01,2013-02-11 07:48:00,
2013-02-11 01:54:00,29.7,24.9,29.89,WSW,248,8.0,20.0,82,0.00,,---,0.00,VWS V14.01,2013-02-11 07:54:00,
2013-02-11 02:00:00,29.8,24.4,29.89,West,280,14.0,20.0,80,0.00,,---,0.00,VWS V14.01,2013-02-11 08:00:00,
2013-02-11 02:06:00,29.7,24.0,29.89,West,259,11.0,27.0,79,0.00,,---,0.00,VWS V14.01,2013-02-11 08:06:00,
2013-02-11 02:12:00,29.5,23.5,29.90,West,273,10.0,27.0,78,0.00,,---,0.00,VWS V14.01,2013-02-11 08:12:00,
2013-02-11 02:18:00,29.3,23.3,29.90,WNW,287,17.0,27.0,78,0.00,,---,0.00,VWS V14.01,2013-02-11 08:18:00,
2013-02-11 02:24:00,29.2,23.2,29.91,West,271,11.0,29.0,78,0.00,,---,0.00,VWS V14.01,2013-02-11 08:24:00,
2013-02-11 02:30:00,29.1,23.1,29.91,West,280,10.0,29.0,78,0.00,,---,0.00,VWS V14.01,2013-02-11 08:30:00,
2013-02-11 02:36:00,29.0,23.0,29.92,West,269,14.0,21.0,78,0.00,,---,0.00,VWS V14.01,2013-02-11 08:36:00,
2013-02-11 02:42:00,28.9,22.9,29.92,West,266,6.0,22.0,78,0.00,,---,0.00,VWS V14.01,2013-02-11 08:42:00,
2013-02-11 02:48:00,28.9,22.9,29.93,NW,306,8.0,22.0,78,0.00,,---,0.00,VWS V14.01,2013-02-11 08:48:00,
2013-02-11 02:54:00,28.8,22.8,29.93,NNW,331,15.0,22.0,78,0.00,,---,0.00,VWS V14.01,2013-02-11 08:54:00,
2013-02-11 03:00:00,28.8,22.8,29.93,WNW,283,6.0,24.0,78,0.00,,---,0.00,VWS V14.01,2013-02-11 09:00:00,
2013-02-11 03:06:00,28.8,22.8,29.93,West,280,14.0,20.0,78,0.00,,---,0.00,VWS V14.01,2013-02-11 09:06:00,
2013-02-11 03:12:00,28.8,22.8,29.93,West,281,14.0,25.0,78,0.00,,---,0.00,VWS V14.01,2013-02-11 09:12:00,
2013-02-11 03:18:00,28.8,22.8,29.94,WNW,283,15.0,26.0,78,0.00,,---,0.00,VWS V14.01,2013-02-11 09:18:00,
2013-02-11 03:24:00,28.9,22.9,29.94,NW,304,8.0,26.0,78,0.00,,---,0.00,VWS V14.01,2013-02-11 09:24:00,
2013-02-11 03:30:00,29.1,23.1,29.94,NW,314,10.0,26.0,78,0.00,,---,0.00,VWS V14.01,2013-02-11 09:30:00,
2013-02-11 03:37:00,29.1,23.1,29.94,WNW,286,9.0,19.0,78,0.00,,---,0.00,VWS V14.01,2013-02-11 09:37:00,
2013-02-11 03:43:00,29.0,23.0,29.93,WNW,296,6.0,19.0,78,0.00,,---,0.00,VWS V14.01,2013-02-11 09:43:00,
2013-02-11 03:49:00,28.8,23.1,29.94,WNW,290,11.0,19.0,79,0.00,,---,0.00,VWS V14.01,2013-02-11 09:49:00,
2013-02-11 03:55:00,28.7,23.0,29.94,West,274,4.0,19.0,79,0.00,,---,0.00,VWS V14.01,2013-02-11 09:55:00,
2013-02-11 04:01:00,28.6,23.2,29.95,WNW,289,8.0,19.0,80,0.00,,---,0.00,VWS V14.01,2013-02-11 10:01:00,
2013-02-11 04:07:00,28.7,23.6,29.96,NNW,327,8.0,13.0,81,0.00,,---,0.00,VWS V14.01,2013-02-11 10:07:00,
2013-02-11 04:13:00,28.9,23.8,29.96,WNW,285,5.0,15.0,81,0.00,,---,0.00,VWS V14.01,2013-02-11 10:13:00,
2013-02-11 04:19:00,29.0,23.6,29.96,NW,321,14.0,26.0,80,0.00,,---,0.00,VWS V14.01,2013-02-11 10:19:00,
2013-02-11 04:25:00,28.9,22.6,29.97,NW,307,8.0,26.0,77,0.00,,---,0.00,VWS V14.01,2013-02-11 10:25:00,
2013-02-11 04:31:00,28.8,22.5,29.97,West,275,10.0,26.0,77,0.00,,---,0.00,VWS V14.01,2013-02-11 10:31:00,
2013-02-11 04:37:00,28.8,22.5,29.97,WNW,299,7.0,17.0,77,0.00,,---,0.00,VWS V14.01,2013-02-11 10:37:00,
2013-02-11 04:43:00,28.8,22.8,29.98,WNW,290,6.0,17.0,78,0.00,,---,0.00,VWS V14.01,2013-02-11 10:43:00,
2013-02-11 04:49:00,28.7,22.7,29.98,West,268,11.0,17.0,78,0.00,,---,0.00,VWS V14.01,2013-02-11 10:49:00,
2013-02-11 04:55:00,28.5,21.9,29.99,WNW,294,13.0,25.0,76,0.00,,---,0.00,VWS V14.01,2013-02-11 10:55:00,
2013-02-11 05:01:00,28.2,21.6,29.99,WNW,292,3.0,25.0,76,0.00,,---,0.00,VWS V14.01,2013-02-11 11:01:00,
2013-02-11 05:07:00,27.9,21.3,30.00,WNW,290,9.0,17.0,76,0.00,,---,0.00,VWS V14.01,2013-02-11 11:07:00,
2013-02-11 05:13:00,27.9,21.6,30.01,WNW,284,7.0,17.0,77,0.00,,---,0.00,VWS V14.01,2013-02-11 11:13:00,
2013-02-11 05:19:00,27.8,21.5,30.01,WSW,252,5.0,17.0,77,0.00,,---,0.00,VWS V14.01,2013-02-11 11:19:00,
2013-02-11 05:25:00,27.8,21.5,30.02,West,261,4.0,17.0,77,0.00,,---,0.00,VWS V14.01,2013-02-11 11:25:00,
2013-02-11 05:31:00,27.8,21.9,30.02,West,279,2.0,17.0,78,0.00,,---,0.00,VWS V14.01,2013-02-11 11:31:00,
2013-02-11 05:37:00,27.9,22.2,30.02,West,276,5.0,6.0,79,0.00,,---,0.00,VWS V14.01,2013-02-11 11:37:00,
2013-02-11 05:43:00,28.0,22.3,30.03,West,260,6.0,10.0,79,0.00,,---,0.00,VWS V14.01,2013-02-11 11:43:00,
2013-02-11 05:49:00,28.2,22.5,30.03,NW,305,6.0,13.0,79,0.00,,---,0.00,VWS V14.01,2013-02-11 11:49:00,
2013-02-11 05:56:00,28.2,22.5,30.03,WNW,291,5.0,14.0,79,0.00,,---,0.00,VWS V14.01,2013-02-11 11:56:00,
2013-02-11 06:01:00,28.2,22.5,30.03,NW,309,12.0,14.0,79,0.00,,---,0.00,VWS V14.01,2013-02-11 12:01:00,
2013-02-11 06:06:00,28.3,22.6,30.03,NW,310,13.0,18.0,79,0.00,,---,0.00,VWS V14.01,2013-02-11 12:06:00,
2013-02-11 06:12:00,28.4,22.7,30.03,West,275,7.0,18.0,79,0.00,,---,0.00,VWS V14.01,2013-02-11 12:12:00,
2013-02-11 06:18:00,28.4,22.7,30.03,WNW,283,15.0,18.0,79,0.00,,---,0.00,VWS V14.01,2013-02-11 12:18:00,
2013-02-11 06:24:00,28.5,22.5,30.03,WSW,253,3.0,18.0,78,0.00,,---,0.00,VWS V14.01,2013-02-11 12:24:00,
2013-02-11 06:30:00,28.6,22.6,30.04,West,279,10.0,18.0,78,0.00,,---,0.00,VWS V14.01,2013-02-11 12:30:00,
2013-02-11 06:36:00,28.6,22.6,30.04,NW,317,5.0,16.0,78,0.00,,---,0.00,VWS V14.01,2013-02-11 12:36:00,
2013-02-11 06:42:00,28.6,22.6,30.04,WNW,283,2.0,16.0,78,0.00,,---,0.00,VWS V14.01,2013-02-11 12:42:00,
2013-02-11 06:48:00,28.5,22.5,30.04,West,267,9.0,17.0,78,0.00,,---,0.00,VWS V14.01,2013-02-11 12:48:00,
2013-02-11 06:54:00,28.4,22.1,30.04,West,263,7.0,17.0,77,0.00,,---,0.00,VWS V14.01,2013-02-11 12:54:00,
2013-02-11 07:00:00,28.2,21.9,30.04,WNW,283,17.0,17.0,77,0.00,,---,0.00,VWS V14.01,2013-02-11 13:00:00,
2013-02-11 07:06:00,28.0,21.7,30.05,WNW,290,12.0,20.0,77,0.00,,---,0.00,VWS V14.01,2013-02-11 13:06:00,
2013-02-11 07:12:00,27.8,21.5,30.05,West,278,12.0,20.0,77,0.00,,---,0.00,VWS V14.01,2013-02-11 13:12:00,
2013-02-11 07:18:00,27.6,21.6,30.05,NW,324,7.0,20.0,78,0.00,,---,0.00,VWS V14.01,2013-02-11 13:18:00,
2013-02-11 07:26:00,27.5,21.5,30.06,West,272,8.0,20.0,78,0.00,,---,0.00,VWS V14.01,2013-02-11 13:26:00,
2013-02-11 07:32:00,27.5,21.5,30.06,West,273,6.0,10.0,78,0.00,,---,0.00,VWS V14.01,2013-02-11 13:32:00,
2013-02-11 07:39:00,27.5,21.9,30.06,West,276,7.0,10.0,79,0.00,,---,0.00,VWS V14.01,2013-02-11 13:39:00,
2013-02-11 07:45:00,27.5,21.9,30.07,WNW,294,4.0,13.0,79,0.00,,---,0.00,VWS V14.01,2013-02-11 13:45:00,
2013-02-11 07:51:00,27.6,22.0,30.07,West,280,3.0,16.0,79,0.00,,---,0.00,VWS V14.01,2013-02-11 13:51:00,
2013-02-11 07:57:00,28.0,22.3,30.07,West,273,3.0,16.0,79,0.00,,---,0.00,VWS V14.01,2013-02-11 13:57:00,
2013-02-11 08:03:00,28.2,21.9,30.07,West,279,5.0,15.0,77,0.00,,---,0.00,VWS V14.01,2013-02-11 14:03:00,
2013-02-11 08:09:00,28.3,21.7,30.07,NW,310,14.0,16.0,76,0.00,,---,0.00,VWS V14.01,2013-02-11 14:09:00,
2013-02-11 08:15:00,28.5,21.9,30.08,WNW,282,8.0,19.0,76,0.00,,---,0.00,VWS V14.01,2013-02-11 14:15:00,
2013-02-11 08:21:00,28.7,21.8,30.08,WNW,287,14.0,19.0,75,0.00,,---,0.00,VWS V14.01,2013-02-11 14:21:00,
2013-02-11 08:27:00,28.8,21.9,30.08,West,267,6.0,22.0,75,0.00,,---,0.00,VWS V14.01,2013-02-11 14:27:00,
2013-02-11 08:33:00,28.9,21.7,30.08,WNW,294,12.0,15.0,74,0.00,,---,0.00,VWS V14.01,2013-02-11 14:33:00,
2013-02-11 08:39:00,29.1,22.2,30.08,WNW,300,7.0,15.0,75,0.00,,---,0.00,VWS V14.01,2013-02-11 14:39:00,
2013-02-11 08:45:00,29.4,22.1,30.09,WNW,287,7.0,15.0,74,0.00,,---,0.00,VWS V14.01,2013-02-11 14:45:00,
2013-02-11 08:51:00,29.7,22.4,30.09,WNW,296,6.0,15.0,74,0.00,,---,0.00,VWS V14.01,2013-02-11 14:51:00,
2013-02-11 08:57:00,29.8,22.2,30.09,WNW,296,11.0,18.0,73,0.00,,---,0.00,VWS V14.01,2013-02-11 14:57:00,
2013-02-11 09:03:00,29.6,22.4,30.10,West,273,4.0,15.0,74,0.00,,---,0.00,VWS V14.01,2013-02-11 15:03:00,
2013-02-11 09:10:00,29.5,22.2,30.10,WSW,250,6.0,15.0,74,0.00,,---,0.00,VWS V14.01,2013-02-11 15:10:00,
2013-02-11 09:16:00,29.4,22.1,30.11,West,267,4.0,15.0,74,0.00,,---,0.00,VWS V14.01,2013-02-11 15:16:00,
2013-02-11 09:22:00,29.4,22.5,30.11,West,279,11.0,15.0,75,0.00,,---,0.00,VWS V14.01,2013-02-11 15:22:00,
2013-02-11 09:28:00,29.5,22.6,30.12,West,280,4.0,15.0,75,0.00,,---,0.00,VWS V14.01,2013-02-11 15:28:00,
2013-02-11 09:34:00,29.6,22.7,30.12,NW,304,6.0,13.0,75,0.00,,---,0.00,VWS V14.01,2013-02-11 15:34:00,
2013-02-11 09:40:00,29.7,22.4,30.12,West,261,3.0,13.0,74,0.00,,---,0.00,VWS V14.01,2013-02-11 15:40:00,
2013-02-11 09:46:00,30.1,22.8,30.12,West,271,1.0,13.0,74,0.00,,---,0.00,VWS V14.01,2013-02-11 15:46:00,
2013-02-11 09:52:00,30.4,23.1,30.13,West,273,2.0,13.0,74,0.00,,---,0.00,VWS V14.01,2013-02-11 15:52:00,
2013-02-11 09:58:00,30.5,22.9,30.13,West,271,7.0,17.0,73,0.00,,---,0.00,VWS V14.01,2013-02-11 15:58:00,
2013-02-11 10:04:00,30.3,22.7,30.13,WNW,284,7.0,14.0,73,0.00,,---,0.00,VWS V14.01,2013-02-11 16:04:00,
2013-02-11 10:10:00,30.1,22.5,30.13,West,265,3.0,15.0,73,0.00,,---,0.00,VWS V14.01,2013-02-11 16:10:00,
2013-02-11 10:16:00,30.6,22.7,30.13,West,269,6.0,18.0,72,0.00,,---,0.00,VWS V14.01,2013-02-11 16:16:00,
2013-02-11 10:22:00,30.8,23.2,30.14,West,281,0.0,18.0,73,0.00,,---,0.00,VWS V14.01,2013-02-11 16:22:00,
2013-02-11 10:28:00,30.9,23.0,30.14,WNW,290,10.0,18.0,72,0.00,,---,0.00,VWS V14.01,2013-02-11 16:28:00,
2013-02-11 10:36:00,31.0,23.0,30.14,NW,322,11.0,11.0,72,0.00,,---,0.00,VWS V14.01,2013-02-11 16:36:00,
2013-02-11 10:42:00,31.1,23.1,30.14,WNW,291,7.0,11.0,72,0.00,,---,0.00,VWS V14.01,2013-02-11 16:42:00,
2013-02-11 10:48:00,31.4,23.4,30.14,WNW,294,6.0,13.0,72,0.00,,---,0.00,VWS V14.01,2013-02-11 16:48:00,
2013-02-11 10:54:00,32.3,24.0,30.14,WSW,244,12.0,16.0,71,0.00,,---,0.00,VWS V14.01,2013-02-11 16:54:00,
2013-02-11 11:00:00,33.1,24.0,30.14,WNW,290,6.0,16.0,69,0.00,,---,0.00,VWS V14.01,2013-02-11 17:00:00,
2013-02-11 11:07:00,33.1,24.4,30.14,West,281,11.0,14.0,70,0.00,,---,0.00,VWS V14.01,2013-02-11 17:07:00,
2013-02-11 11:13:00,33.5,24.1,30.14,WNW,294,2.0,14.0,68,0.00,,---,0.00,VWS V14.01,2013-02-11 17:13:00,
2013-02-11 11:19:00,34.1,24.7,30.15,NW,322,11.0,14.0,68,0.00,,---,0.00,VWS V14.01,2013-02-11 17:19:00,
2013-02-11 11:25:00,34.2,24.8,30.15,NW,317,7.0,14.0,68,0.00,,---,0.00,VWS V14.01,2013-02-11 17:25:00,
2013-02-11 11:31:00,33.9,24.1,30.15,WNW,286,5.0,14.0,67,0.00,,---,0.00,VWS V14.01,2013-02-11 17:31:00,
2013-02-11 11:37:00,33.3,23.9,30.15,WNW,286,4.0,14.0,68,0.00,,---,0.00,VWS V14.01,2013-02-11 17:37:00,
2013-02-11 11:43:00,33.3,24.2,30.15,West,274,1.0,14.0,69,0.00,,---,0.00,VWS V14.01,2013-02-11 17:43:00,
2013-02-11 11:49:00,33.6,24.5,30.15,West,270,3.0,14.0,69,0.00,,---,0.00,VWS V14.01,2013-02-11 17:49:00,
2013-02-11 11:55:00,33.8,25.1,30.15,West,281,1.0,14.0,70,0.00,,---,0.00,VWS V14.01,2013-02-11 17:55:00,
2013-02-11 12:01:00,34.4,25.0,30.15,West,261,1.0,14.0,68,0.00,,---,0.00,VWS V14.01,2013-02-11 18:01:00,
2013-02-11 12:07:00,34.4,24.6,30.15,WNW,292,12.0,12.0,67,0.00,,---,0.00,VWS V14.01,2013-02-11 18:07:00,
2013-02-11 12:13:00,34.7,25.2,30.15,West,263,7.0,12.0,68,0.00,,---,0.00,VWS V14.01,2013-02-11 18:13:00,
2013-02-11 12:19:00,34.7,24.9,30.15,West,269,7.0,12.0,67,0.00,,---,0.00,VWS V14.01,2013-02-11 18:19:00,
2013-02-11 12:25:00,34.4,24.6,30.15,West,263,6.0,12.0,67,0.00,,---,0.00,VWS V14.01,2013-02-11 18:25:00,
2013-02-11 12:31:00,34.6,25.5,30.15,WNW,284,2.0,12.0,69,0.00,,---,0.00,VWS V14.01,2013-02-11 18:31:00,
2013-02-11 12:37:00,35.3,25.5,30.14,West,266,9.0,12.0,67,0.00,,---,0.00,VWS V14.01,2013-02-11 18:37:00,
2013-02-11 12:43:00,35.3,25.8,30.14,West,279,10.0,12.0,68,0.00,,---,0.00,VWS V14.01,2013-02-11 18:43:00,
2013-02-11 12:49:00,35.3,24.7,30.15,NW,319,5.0,12.0,65,0.00,,---,0.00,VWS V14.01,2013-02-11 18:49:00,
2013-02-11 12:55:00,35.0,25.2,30.14,West,259,4.0,13.0,67,0.00,,---,0.00,VWS V14.01,2013-02-11 18:55:00,
2013-02-11 13:01:00,34.9,25.1,30.14,West,277,3.0,13.0,67,0.00,,---,0.00,VWS V14.01,2013-02-11 19:01:00,
2013-02-11 13:07:00,34.6,24.8,30.14,SW,225,6.0,6.0,67,0.00,,---,0.00,VWS V14.01,2013-02-11 19:07:00,
2013-02-11 13:14:00,34.5,25.0,30.14,WNW,290,3.0,11.0,68,0.00,,---,0.00,VWS V14.01,2013-02-11 19:14:00,
2013-02-11 13:20:00,34.7,25.2,30.14,West,281,9.0,11.0,68,0.00,,---,0.00,VWS V14.01,2013-02-11 19:20:00,
2013-02-11 13:26:00,34.4,25.0,30.15,WNW,291,3.0,11.0,68,0.00,,---,0.00,VWS V14.01,2013-02-11 19:26:00,
2013-02-11 13:31:00,34.4,25.0,30.15,West,273,4.0,11.0,68,0.00,,---,0.00,VWS V14.01,2013-02-11 19:31:00,
2013-02-11 13:36:00,34.4,25.3,30.15,West,269,4.0,7.0,69,0.00,,---,0.00,VWS V14.01,2013-02-11 19:36:00,
2013-02-11 13:42:00,34.3,24.9,30.15,West,271,3.0,8.0,68,0.00,,---,0.00,VWS V14.01,2013-02-11 19:42:00,
2013-02-11 13:48:00,34.0,24.9,30.15,West,263,3.0,8.0,69,0.00,,---,0.00,VWS V14.01,2013-02-11 19:48:00,
2013-02-11 13:54:00,34.2,25.1,30.15,WNW,287,0.0,10.0,69,0.00,,---,0.00,VWS V14.01,2013-02-11 19:54:00,
2013-02-11 14:00:00,34.4,25.3,30.15,West,273,4.0,10.0,69,0.00,,---,0.00,VWS V14.01,2013-02-11 20:00:00,
2013-02-11 14:06:00,34.4,25.6,30.15,West,275,3.0,6.0,70,0.00,,---,0.00,VWS V14.01,2013-02-11 20:06:00,
2013-02-11 14:12:00,34.6,25.5,30.15,WSW,257,2.0,8.0,69,0.00,,---,0.00,VWS V14.01,2013-02-11 20:12:00,
2013-02-11 14:18:00,34.6,25.1,30.15,WNW,284,3.0,9.0,68,0.00,,---,0.00,VWS V14.01,2013-02-11 20:18:00,
2013-02-11 14:24:00,34.7,25.6,30.15,West,276,9.0,9.0,69,0.00,,---,0.00,VWS V14.01,2013-02-11 20:24:00,
2013-02-11 14:30:00,34.7,25.2,30.15,West,263,6.0,12.0,68,0.00,,---,0.00,VWS V14.01,2013-02-11 20:30:00,
2013-02-11 14:36:00,34.8,25.7,30.15,WNW,296,9.0,12.0,69,0.00,,---,0.00,VWS V14.01,2013-02-11 20:36:00,
2013-02-11 14:43:00,35.0,25.5,30.15,WNW,290,1.0,12.0,68,0.00,,---,0.00,VWS V14.01,2013-02-11 20:43:00,
2013-02-11 14:49:00,35.2,25.7,30.14,West,280,5.0,12.0,68,0.00,,---,0.00,VWS V14.01,2013-02-11 20:49:00,
2013-02-11 14:55:00,35.3,25.8,30.14,WNW,290,3.0,12.0,68,0.00,,---,0.00,VWS V14.01,2013-02-11 20:55:00,
2013-02-11 15:01:00,35.4,25.5,30.14,West,281,3.0,12.0,67,0.00,,---,0.00,VWS V14.01,2013-02-11 21:01:00,
2013-02-11 15:07:00,35.3,25.5,30.14,WNW,289,4.0,12.0,67,0.00,,---,0.00,VWS V14.01,2013-02-11 21:07:00,
2013-02-11 15:13:00,35.2,25.7,30.14,WNW,287,4.0,12.0,68,0.00,,---,0.00,VWS V14.01,2013-02-11 21:13:00,
2013-02-11 15:19:00,35.5,26.0,30.14,WNW,298,4.0,15.0,68,0.00,,---,0.00,VWS V14.01,2013-02-11 21:19:00,
2013-02-11 15:25:00,36.0,26.1,30.14,West,277,8.0,15.0,67,0.00,,---,0.00,VWS V14.01,2013-02-11 21:25:00,
2013-02-11 15:31:00,37.0,26.7,30.14,WNW,291,6.0,15.0,66,0.00,,---,0.00,VWS V14.01,2013-02-11 21:31:00,
2013-02-11 15:37:00,37.2,26.2,30.14,WNW,289,5.0,10.0,64,0.00,,---,0.00,VWS V14.01,2013-02-11 21:37:00,
2013-02-11 15:43:00,36.7,26.1,30.14,West,281,4.0,10.0,65,0.00,,---,0.00,VWS V14.01,2013-02-11 21:43:00,
2013-02-11 15:49:00,36.8,26.1,30.14,WNW,298,10.0,10.0,65,0.00,,---,0.00,VWS V14.01,2013-02-11 21:49:00,
2013-02-11 15:55:00,36.4,25.4,30.14,WNW,290,3.0,12.0,64,0.00,,---,0.00,VWS V14.01,2013-02-11 21:55:00,
2013-02-11 16:01:00,36.0,25.8,30.14,WNW,288,4.0,12.0,66,0.00,,---,0.00,VWS V14.01,2013-02-11 22:01:00,
2013-02-11 16:07:00,35.7,25.5,30.14,WNW,299,2.0,8.0,66,0.00,,---,0.00,VWS V14.01,2013-02-11 22:07:00,
2013-02-11 16:13:00,35.9,25.7,30.14,WNW,284,4.0,10.0,66,0.00,,---,0.00,VWS V14.01,2013-02-11 22:13:00,
2013-02-11 16:19:00,35.7,25.8,30.14,WNW,302,7.0,12.0,67,0.00,,---,0.00,VWS V14.01,2013-02-11 22:19:00,
2013-02-11 16:25:00,35.6,26.1,30.14,NW,312,7.0,12.0,68,0.00,,---,0.00,VWS V14.01,2013-02-11 22:25:00,
2013-02-11 16:31:00,35.7,25.5,30.14,NW,309,3.0,14.0,66,0.00,,---,0.00,VWS V14.01,2013-02-11 22:31:00,
2013-02-11 16:38:00,35.2,25.4,30.14,NNW,331,7.0,10.0,67,0.00,,---,0.00,VWS V14.01,2013-02-11 22:38:00,
2013-02-11 16:44:00,34.6,24.8,30.14,WNW,284,1.0,10.0,67,0.00,,---,0.00,VWS V14.01,2013-02-11 22:44:00,
2013-02-11 16:50:00,34.4,25.0,30.14,NW,304,4.0,11.0,68,0.00,,---,0.00,VWS V14.01,2013-02-11 22:50:00,
2013-02-11 16:56:00,33.9,24.8,30.14,NW,315,2.0,11.0,69,0.00,,---,0.00,VWS V14.01,2013-02-11 22:56:00,
2013-02-11 17:02:00,33.5,24.4,30.14,NW,318,5.0,6.0,69,0.00,,---,0.00,VWS V14.01,2013-02-11 23:02:00,
2013-02-11 17:08:00,33.2,24.5,30.14,WNW,303,4.0,8.0,70,0.00,,---,0.00,VWS V14.01,2013-02-11 23:08:00,
2013-02-11 17:14:00,32.9,24.5,30.14,NW,321,5.0,8.0,71,0.00,,---,0.00,VWS V14.01,2013-02-11 23:14:00,
2013-02-11 17:20:00,32.6,24.2,30.14,NW,321,5.0,8.0,71,0.00,,---,0.00,VWS V14.01,2013-02-11 23:20:00,
2013-02-11 17:26:00,32.2,24.2,30.14,NW,323,4.0,9.0,72,0.00,,---,0.00,VWS V14.01,2013-02-11 23:26:00,
2013-02-11 17:32:00,31.9,23.9,30.14,NNW,331,5.0,8.0,72,0.00,,---,0.00,VWS V14.01,2013-02-11 23:32:00,
2013-02-11 17:38:00,31.5,23.5,30.14,NNW,343,6.0,11.0,72,0.00,,---,0.00,VWS V14.01,2013-02-11 23:38:00,
2013-02-11 17:44:00,31.0,23.4,30.13,NW,326,3.0,11.0,73,0.00,,---,0.00,VWS V14.01,2013-02-11 23:44:00,
2013-02-11 17:50:00,30.6,23.0,30.14,NW,317,5.0,11.0,73,0.00,,---,0.00,VWS V14.01,2013-02-11 23:50:00,
2013-02-11 17:56:00,30.2,23.2,30.14,NW,323,6.0,11.0,75,0.00,,---,0.00,VWS V14.01,2013-02-11 23:56:00,
2013-02-11 18:02:00,29.8,22.9,30.14,NW,322,5.0,7.0,75,0.00,,---,0.00,VWS V14.01,2013-02-12 00:02:00,
2013-02-11 18:08:00,29.5,22.9,30.14,NW,321,6.0,7.0,76,0.00,,---,0.00,VWS V14.01,2013-02-12 00:08:00,
2013-02-11 18:14:00,29.2,22.9,30.15,NW,311,4.0,7.0,77,0.00,,---,0.00,VWS V14.01,2013-02-12 00:14:00,
2013-02-11 18:20:00,29.0,22.7,30.15,NNW,327,3.0,7.0,77,0.00,,---,0.00,VWS V14.01,2013-02-12 00:20:00,
2013-02-11 18:26:00,28.8,22.5,30.15,NNW,335,3.0,7.0,77,0.00,,---,0.00,VWS V14.01,2013-02-12 00:26:00,
2013-02-11 18:32:00,28.6,22.6,30.15,NNW,331,4.0,5.0,78,0.00,,---,0.00,VWS V14.01,2013-02-12 00:32:00,
2013-02-11 18:39:00,28.4,22.4,30.16,NNW,327,3.0,5.0,78,0.00,,---,0.00,VWS V14.01,2013-02-12 00:39:00,
2013-02-11 18:45:00,28.1,22.1,30.16,NW,319,4.0,6.0,78,0.00,,---,0.00,VWS V14.01,2013-02-12 00:45:00,
2013-02-11 18:51:00,27.8,22.1,30.17,NW,306,3.0,6.0,79,0.00,,---,0.00,VWS V14.01,2013-02-12 00:51:00,
2013-02-11 18:57:00,27.6,22.0,30.17,WNW,303,0.0,6.0,79,0.00,,---,0.00,VWS V14.01,2013-02-12 00:57:00,
2013-02-11 19:03:00,27.4,21.8,30.17,NW,304,2.0,4.0,79,0.00,,---,0.00,VWS V14.01,2013-02-12 01:03:00,
2013-02-11 19:09:00,27.2,21.6,30.17,NW,304,2.0,5.0,79,0.00,,---,0.00,VWS V14.01,2013-02-12 01:09:00,
2013-02-11 19:15:00,27.0,21.7,30.17,NW,304,0.0,5.0,80,0.00,,---,0.00,VWS V14.01,2013-02-12 01:15:00,
2013-02-11 19:21:00,26.7,21.4,30.17,NW,304,0.0,5.0,80,0.00,,---,0.00,VWS V14.01,2013-02-12 01:21:00,
2013-02-11 19:27:00,26.5,21.2,30.17,NW,304,0.0,5.0,80,0.00,,---,0.00,VWS V14.01,2013-02-12 01:27:00,
2013-02-11 19:33:00,26.2,21.2,30.17,NW,304,2.0,3.0,81,0.00,,---,0.00,VWS V14.01,2013-02-12 01:33:00,
2013-02-11 19:39:00,26.1,21.1,30.17,WNW,303,1.0,3.0,81,0.00,,---,0.00,VWS V14.01,2013-02-12 01:39:00,
2013-02-11 19:45:00,25.8,21.1,30.18,NW,320,1.0,3.0,82,0.00,,---,0.00,VWS V14.01,2013-02-12 01:45:00,
2013-02-11 19:51:00,25.7,21.0,30.18,WNW,301,3.0,4.0,82,0.00,,---,0.00,VWS V14.01,2013-02-12 01:51:00,
2013-02-11 19:57:00,25.6,20.9,30.17,NW,311,3.0,6.0,82,0.00,,---,0.00,VWS V14.01,2013-02-12 01:57:00,
2013-02-11 20:03:00,25.4,20.7,30.17,NW,310,0.0,4.0,82,0.00,,---,0.00,VWS V14.01,2013-02-12 02:03:00,
2013-02-11 20:09:00,25.3,20.9,30.17,NW,314,3.0,6.0,83,0.00,,---,0.00,VWS V14.01,2013-02-12 02:09:00,
2013-02-11 20:15:00,25.3,20.9,30.17,NW,311,0.0,6.0,83,0.00,,---,0.00,VWS V14.01,2013-02-12 02:15:00,
2013-02-11 20:21:00,25.2,20.8,30.17,NW,310,1.0,6.0,83,0.00,,---,0.00,VWS V14.01,2013-02-12 02:21:00,
2013-02-11 20:27:00,25.1,20.7,30.17,NW,310,0.0,6.0,83,0.00,,---,0.00,VWS V14.01,2013-02-12 02:27:00,
2013-02-11 20:33:00,25.0,20.6,30.17,NW,311,0.0,1.0,83,0.00,,---,0.00,VWS V14.01,2013-02-12 02:33:00,
2013-02-11 20:39:00,24.8,20.4,30.17,NW,311,0.0,1.0,83,0.00,,---,0.00,VWS V14.01,2013-02-12 02:39:00,
2013-02-11 20:46:00,24.7,20.3,30.17,NW,311,0.0,1.0,83,0.00,,---,0.00,VWS V14.01,2013-02-12 02:46:00,
2013-02-11 20:52:00,24.5,20.1,30.17,NW,310,0.0,1.0,83,0.00,,---,0.00,VWS V14.01,2013-02-12 02:52:00,
2013-02-11 20:58:00,24.4,20.3,30.17,NW,311,0.0,1.0,84,0.00,,---,0.00,VWS V14.01,2013-02-12 02:58:00,
2013-02-11 21:04:00,24.3,20.2,30.17,NW,311,0.0,0.0,84,0.00,,---,0.00,VWS V14.01,2013-02-12 03:04:00,
2013-02-11 21:10:00,24.1,20.0,30.17,NW,311,0.0,0.0,84,0.00,,---,0.00,VWS V14.01,2013-02-12 03:10:00,
2013-02-11 21:16:00,24.0,19.9,30.17,NW,310,0.0,0.0,84,0.00,,---,0.00,VWS V14.01,2013-02-12 03:16:00,
2013-02-11 21:22:00,23.9,20.1,30.17,NW,310,0.0,0.0,85,0.00,,---,0.00,VWS V14.01,2013-02-12 03:22:00,
2013-02-11 21:28:00,23.9,20.1,30.17,NW,311,0.0,0.0,85,0.00,,---,0.00,VWS V14.01,2013-02-12 03:28:00,
2013-02-11 21:34:00,23.9,20.1,30.17,NW,311,0.0,0.0,85,0.00,,---,0.00,VWS V14.01,2013-02-12 03:34:00,
2013-02-11 21:40:00,23.9,20.1,30.17,NW,311,0.0,0.0,85,0.00,,---,0.00,VWS V14.01,2013-02-12 03:40:00,
2013-02-11 21:46:00,24.0,20.4,30.17,NW,311,0.0,0.0,86,0.00,,---,0.00,VWS V14.01,2013-02-12 03:46:00,
2013-02-11 21:52:00,24.0,20.4,30.17,NW,310,0.0,0.0,86,0.00,,---,0.00,VWS V14.01,2013-02-12 03:52:00,
2013-02-11 21:58:00,24.0,20.1,30.17,NW,310,0.0,0.0,85,0.00,,---,0.00,VWS V14.01,2013-02-12 03:58:00,
2013-02-11 22:04:00,24.0,20.4,30.17,NW,311,0.0,0.0,86,0.00,,---,0.00,VWS V14.01,2013-02-12 04:04:00,
2013-02-11 22:10:00,24.0,20.1,30.18,NW,311,0.0,0.0,85,0.00,,---,0.00,VWS V14.01,2013-02-12 04:10:00,
2013-02-11 22:16:00,23.9,20.1,30.18,NW,307,1.0,2.0,85,0.00,,---,0.00,VWS V14.01,2013-02-12 04:16:00,
2013-02-11 22:22:00,24.0,20.1,30.18,WNW,284,2.0,3.0,85,0.00,,---,0.00,VWS V14.01,2013-02-12 04:22:00,
2013-02-11 22:28:00,24.0,20.4,30.17,West,273,3.0,4.0,86,0.00,,---,0.00,VWS V14.01,2013-02-12 04:28:00,
2013-02-11 22:34:00,24.1,20.5,30.18,WSW,239,2.0,4.0,86,0.00,,---,0.00,VWS V14.01,2013-02-12 04:34:00,
2013-02-11 22:40:00,24.2,20.6,30.18,SW,236,3.0,4.0,86,0.00,,---,0.00,VWS V14.01,2013-02-12 04:40:00,
2013-02-11 22:46:00,24.1,20.5,30.18,SW,229,4.0,4.0,86,0.00,,---,0.00,VWS V14.01,2013-02-12 04:46:00,
2013-02-11 22:52:00,24.0,20.4,30.18,SW,228,4.0,5.0,86,0.00,,---,0.00,VWS V14.01,2013-02-12 04:52:00,
2013-02-11 22:58:00,24.0,20.4,30.19,SW,227,3.0,5.0,86,0.00,,---,0.00,VWS V14.01,2013-02-12 04:58:00,
2013-02-11 23:00:00,24.0,20.4,30.19,SW,227,4.0,5.0,86,0.00,,---,0.00,VWS V14.01,2013-02-12 05:00:00,
2013-02-11 23:01:00,24.0,20.4,30.19,SW,227,4.0,5.0,86,0.00,,---,0.00,VWS V14.01,2013-02-12 05:01:00,
2013-02-11 23:04:00,24.0,20.4,30.19,SW,226,3.0,5.0,86,0.00,,---,0.00,VWS V14.01,2013-02-12 05:04:00,
2013-02-11 23:11:00,23.9,20.6,30.19,SW,225,3.0,5.0,87,0.00,,---,0.00,VWS V14.01,2013-02-12 05:11:00,
2013-02-11 23:17:00,23.9,20.6,30.19,SW,225,4.0,5.0,87,0.00,,---,0.00,VWS V14.01,2013-02-12 05:17:00,
2013-02-11 23:23:00,23.8,20.5,30.19,SW,224,4.0,5.0,87,0.00,,---,0.00,VWS V14.01,2013-02-12 05:23:00,
2013-02-11 23:29:00,23.5,20.2,30.19,SW,221,4.0,5.0,87,0.00,,---,0.00,VWS V14.01,2013-02-12 05:29:00,
2013-02-11 23:31:00,23.4,20.1,30.19,SW,221,3.0,3.0,87,0.00,,---,0.00,VWS V14.01,2013-02-12 05:31:00,
2013-02-11 23:37:00,23.2,19.9,30.19,SW,221,4.0,5.0,87,0.00,,---,0.00,VWS V14.01,2013-02-12 05:37:00,
2013-02-11 23:43:00,23.1,19.8,30.19,SW,221,3.0,5.0,87,0.00,,---,0.00,VWS V14.01,2013-02-12 05:43:00,
2013-02-11 23:49:00,23.1,20.1,30.19,SW,221,1.0,5.0,88,0.00,,---,0.00,VWS V14.01,2013-02-12 05:49:00,
2013-02-11 23:55:00,23.2,20.2,30.19,SW,221,4.0,5.0,88,0.00,,---,0.00,VWS V14.01,2013-02-12 05:55:00,